Location: Dillon
(41.1766°N, 107.0923°W)
Time: 11:28:43
(UTC+00:00)

Tiangong - Pass Details

Date: 03 February 2022
Orbit: 386 x 391 km, 41.5° (Epoch: 16 May)

Event Time Altitude Azimuth Distance (km) Brightness Sun altitude
Rises 02:13:05 0° 279° (W) 2,338 6.5 -20.3°
Reaches altitude 10° 02:15:11 10° 277° (W) 1,481 5.1 -20.7°
Enters shadow 02:18:17 67° 232° (SW) 452 1.5 -21.3°
